{"data":{"norad_id":46459,"intl_designator":"2020-065F","name":"JILIN-1 GAOFEN 3G","alt_names":[],"object_type":"PAYLOAD","status":"ACTIVE","operator":null,"country":"PRC","launch_date":"2020-09-15","launch_site_code":"SEAL","launch_vehicle":null,"mission":null,"orbit_class":"UNKNOWN","rcs_meters":null,"size_class":null,"mass_kg":null,"dimensions":null,"purposes":[],"wikipedia_slug":null,"has_3d_model":false,"image_url":null,"decayed_at":null,"tle_current":{"epoch":"2026-09-20T01:39:13.828320Z","epoch_age_seconds":110646,"freshness":"FRESH","line1":"1 46459U 20065F   26263.06891005  .01118243  85282-3  90448-3 0  9995","line2":"2 46459  97.2106 324.9314 0005774 240.3959 119.6753 16.14469501334960","mean_motion":16.14469501,"eccentricity":0.0005774,"inclination_deg":97.2106,"raan_deg":324.9314,"arg_perigee_deg":240.3959,"mean_anomaly_deg":119.6753,"bstar":0.00090448,"rev_number":33496,"period_min":89.193385140324,"perigee_km":230.79236891034,"apogee_km":238.42876980344,"semimajor_km":6612.7475693569,"source":"CELESTRAK","updated_at":"2026-09-20T09:00:14.758002Z"}}}